Flag for Ukraine Weather past 2 weeks in Chernobyl, Ukraine

Now
72 °F

Mild.


Feels Like: 76 °F
Forecast: 56 / 73 °F
Wind: 15 mph from Southwest

Location: Hostomel

Current Time: Apr 26, 2015 at 8:22:55 PM

Latest Report: Apr 26, 2015 at 7:00 PM


Visibility: N/A

Pressure: 29.80 "Hg

Humidity: 31%

Dew point: 39 °F

Location of ChernobylLocation

Historic Weather in Chernobyl — Graph

°F

Chernobyl temperature yesterday

Maximum temperature yesterday: 68 °F (at 3:00 PM)
Minimum temperature yesterday: 48 °F (at 6:00 AM)
Average temperature yesterday: 58 °F

Past Weeks' High & Low Weather Summary

 TemperatureHumidityPressure
High77 °F (Apr 26, 3:00 PM)100% (Apr 15, 3:00 PM)30.24 "Hg (Apr 15, 3:00 PM)
Low30 °F (Apr 21, 1:00 AM)14% (Apr 12, 3:00 PM)29.53 "Hg (Apr 20, 7:30 AM)
Average49 °F62%29.86 "Hg
* Reported Apr 11 7:00 PM — Apr 26 7:00 PM, Chernobyl, Weather by CustomWeather, © 2015

Note: Actual official high and low records may vary slightly from our data, if they occured in-between our weather recording intervals... More about our weather records

Advertising

Chernobyl weather history for previous 24 hours

 ConditionsComfort  
Time TempWeatherWind HumidityBarometerVisibility
7:00 PM
Sun, Apr 26
72 °FMild.15 mph31%29.80 "HgN/A
6:00 PM75 °FMild.10 mph25%29.80 "HgN/A
5:00 PM75 °FMild.13 mph27%29.80 "HgN/A
4:00 PM75 °FMild.13 mph25%29.83 "HgN/A
3:00 PM77 °FPleasantly warm.13 mph26%29.83 "HgN/A
2:00 PM75 °FMild.13 mph27%29.86 "HgN/A
1:00 PM73 °FMild.13 mph27%29.86 "HgN/A
12:00 PM72 °FMild.13 mph31%29.89 "HgN/A
11:00 AM70 °FMild.13 mph40%29.89 "HgN/A
10:00 AM66 °FMild.10 mph46%29.92 "HgN/A
9:00 AM61 °FRefreshingly cool.8 mph55%29.92 "HgN/A
8:00 AM55 °FCool.3 mph72%29.92 "HgN/A
7:00 AM54 °FCool.1 mph82%29.92 "HgN/A
6:00 AM50 °FCool.3 mph94%29.92 "HgN/A
5:00 AM48 °FCool.3 mph100%29.92 "Hg4 mi
4:00 AM50 °FCool.No wind94%29.92 "Hg4 mi
3:00 AM52 °FCool.3 mph88%29.92 "Hg5 mi
2:00 AM52 °FCool.No wind88%29.95 "HgN/A
1:00 AM50 °FCool.3 mph94%29.98 "Hg5 mi
12:00 AM52 °FCool.1 mph88%29.98 "HgN/A
11:00 PM
Sat, Apr 25
54 °FCool.1 mph88%29.98 "Hg6 mi
10:00 PM55 °FCool.1 mph77%29.98 "HgN/A
9:00 PM57 °FCool.1 mph72%29.95 "HgN/A
8:00 PM59 °FCool.3 mph68%29.95 "HgN/A
Weather by CustomWeather, © 2015

See weather overviewHow to use our weather pages